User: anonymous   Login
Location: Morlupo
(42.1333°N, 12.5000°E)
Time: 11:28:57
(UTC+00:00)
Language:

Meteor 1-21 - Orbit

View from above orbital plane
View from above orbital plane
View from above satellite
View from above satellite

Ground track
Ground track

The orbit data is extracted from the following two-line orbital elements,

1 07714U 75023A   22275.80204600  .00000158  00000-0  85526-4 0  9998
2 07714  81.2110 108.8332 0027165 206.7918 153.1850 14.08112492757041
Epoch (UTC): 02 October 2022 19:14:56
Eccentricity: 0.0027165
inclination: 81.2110°
perigee height: 846 km
apogee height: 885 km
right ascension of ascending node: 108.8332°
argument of perigee: 206.7918°
revolutions per day: 14.08112492
mean anomaly at epoch: 153.1850°
orbit number at epoch: 75704

The dashed part of the orbit path shows where the satellite is in the earth's shadow,  

DLR